This is the latest recevied weather packets stored in our database for station/object HS2LXA-WX. If no packets are shown the sender has not sent any weather packets the latest 10 day(s).
| Time | Temp. | Humidity | Pressure | Rain* | Wind** | Luminosity | Snow |
|---|---|---|---|---|---|---|---|
| 1777446634 | 31.11° C | 89% | 1013.2 hPa | 0 mm | - | - | - |
| 1777446033 | 30.56° C | 92% | 1013.1 hPa | 0 mm | - | - | - |
| 1777444924 | 30.56° C | 91% | 1013.1 hPa | 3.05 mm | - | - | - |
| 1777444324 | 31.11° C | 89% | 1013.1 hPa | 3.05 mm | - | - | - |
| 1777443362 | 31.11° C | 77% | 1013.1 hPa | 0 mm | - | - | - |
| 1777442763 | 31.11° C | 74% | 1013.1 hPa | 0 mm | - | - | - |
| 1777442161 | 31.11° C | 71% | 1013.1 hPa | 0 mm | - | - | - |
| 1777441561 | 31.11° C | 71% | 1013.2 hPa | 0 mm | - | - | - |
| 1777440961 | 31.11° C | 70% | 1013.1 hPa | 0 mm | - | - | - |
| 1777440360 | 31.11° C | 69% | 1013.1 hPa | 0 mm | - | - | - |
| 1777439761 | 31.67° C | 78% | 1013.1 hPa | 0 mm | - | - | - |
| 1777439038 | 31.67° C | 78% | 1013.2 hPa | 0 mm | - | - | - |
| 1777438435 | 31.67° C | 78% | 1013.2 hPa | 0 mm | - | - | - |
| 1777437832 | 31.67° C | 78% | 1013.1 hPa | 0 mm | - | - | - |
| 1777437233 | 32.22° C | 77% | 1013.1 hPa | 0 mm | - | - | - |
| 1777436633 | 32.22° C | 76% | 1013.2 hPa | 0 mm | - | - | - |
| 1777435748 | 32.22° C | 75% | 1013.1 hPa | 0 mm | - | - | - |
| 1777433811 | 33.33° C | 70% | 1013.1 hPa | 0 mm | - | - | - |
| 1777433211 | 33.89° C | 69% | 1013.2 hPa | 0 mm | - | - | - |
| 1777432566 | 33.33° C | 70% | 1013.2 hPa | 0 mm | - | - | - |
| 1777431904 | 33.33° C | 70% | 1013.1 hPa | 0 mm | - | - | - |
| 1777431304 | 33.33° C | 71% | 1013.2 hPa | 0 mm | - | - | - |
| 1777430704 | 33.33° C | 71% | 1013.1 hPa | 0 mm | - | - | - |
* Rain latest hour (hover to see other rain measurements)
** Current wind speed in m/s (hover to see current wind gust speed)